Regional Weather Roundup
Issued by NWS

Home | Current Version | Previous Version | Text Only | Print | Product List | Glossary Off
Versions: 1 2 3 4 5 6 7 8 9 10 11 12 13 14 15 16 17 18 19 20 21 22 23 24 25 26 27 28 29 30 31 32 33 34 35 36 37 38 39 40 41 42 43 44 45 46 47 48 49 50

000
ASUS43 KDTX 292001
RWRMI
MICHIGAN HOURLY REGIONAL WEATHER ROUNDUP
NATIONAL WEATHER SERVICE DETROIT/PONTIAC MI
400 PM EDT WED JUL 29 2015

NOTE: "FAIR" INDICATES FEW OR NO CLOUDS BELOW 12,000 FEET WITH NO
SIGNIFICANT WEATHER AND/OR OBSTRUCTION TO VISIBILITY.

MIZ047>049-052>055-059>063-066>070-074>076-081>083-292100-
SOUTHEAST LOWER MICHIGAN

CITY           SKY/WX    TMP DP  RH WIND       PRES   REMARKS
ADRIAN         TSTM      76  74  93 CALM      29.93S FOG
ALMA           PTSUNNY   86  73  64 W17G23    29.87S HX  93
ANN ARBOR      CLOUDY    78  73  84 SW9       29.91F THUNDER
BAD AXE        HVY RAIN  75  72  89 W9G22     29.87R
CARO           CLOUDY    78  76  92 S8        29.87S
DETROIT CITY   PTSUNNY   87  70  56 SW13      29.88R HX  92
DETROIT        LGT RAIN  86  72  62 SW29G40   29.89R HX  92
FLINT          PTSUNNY   88  76  67 SW12      29.88S HX  99
GROSSE ILE     PTSUNNY   82  75  78 SE10G16   29.87F
HILLSDALE      PTSUNNY   85  76  75 W13       29.93S HX  95
HOWELL         MOSUNNY   89  73  59 SW12      29.89S HX  96

CITY           SKY/WX    TMP DP  RH WIND       PRES   REMARKS
JACKSON        MOSUNNY   85  75  72 W13G20    29.91S HX  93
LAMBERTVILLE   LGT RAIN  82  73  76 W5        29.91S
LANSING        MOSUNNY   87  71  58 W16G23    29.89F HX  93
LAPEER         LGT RAIN  74  73  96 S6        29.91R VSB 1
MASON          CLOUDY    84  72  67 W12G17    29.91R
MONROE         CLOUDY    86  73  65 SW7       29.88S HX  93
MT. CLEMENS    PTSUNNY   86  73  63 S15G24    29.85F HX  93
PONTIAC        TSTM      76  74  93 SW9G20    29.92R FOG
PORT HOPE        N/A     83  73  72 SW3       29.83S
PORT HURON     PTSUNNY   84  70  61 S12G17    29.88R
TRI CITIES     PTSUNNY   89  75  63 SW13      29.85F HX  99
MIDLAND        PTSUNNY   87  72  59 W8        29.84S HX  94
TROY           CLOUDY    89  68  49 SW12      29.88S HX  92
SAGINAW HB     PTSUNNY   82  77  83 SE7       29.85S HX  91
$$
MIZ043>046-050>051-056>058-064>065-071>073-077>080-292100-
SOUTHWEST LOWER MICHIGAN

CITY           SKY/WX    TMP DP  RH WIND       PRES   REMARKS
BATTLE CREEK   PTSUNNY   86  72  62 W15       29.93F HX  92
BENTON HARBOR  SUNNY     81  64  56 W12       29.97S
BIG RAPIDS     MOSUNNY   85  51  30 W12G20    29.89F
COLDWATER      CLOUDY    84  72  67 NW13G21   29.93S
FREMONT        FAIR      83  51  32 W15       29.91F
HOLLAND        SUNNY     82  62  50 W12G20    29.95F
GRAND RAPIDS   PTSUNNY   84  59  42 W18G24    29.92S
IONIA          CLOUDY    86  70  58 W21       29.89S HX  90
KALAMAZOO      MOSUNNY   85  70  60 W14G22    29.93F
LUDINGTON      MOSUNNY   81  58  45 SW14      29.90F
MARSHALL       PTSUNNY   86  74  65 W13       29.92S HX  94
MOUNT PLEASANT MOSUNNY   89  64  43 W14G20    29.86R HX  91
MUSKEGON       PTSUNNY   83  58  42 W12       29.93F
SOUTH HAVEN    SUNNY     80  64  57 W10       29.96F
$$
MIZ016>042-292100-
NORTHERN LOWER MICHIGAN

CITY           SKY/WX    TMP DP  RH WIND       PRES   REMARKS
ALPENA         PTSUNNY   88  71  57 SW12      29.78F HX  94
BEAVER ISLAND  SUNNY     79  56  45 SW16G28   29.80S
BELLAIRE       SUNNY     85  47  27 W9G23     29.82F
CADILLAC       MOSUNNY   85  51  31 W15G24    29.88
CHARLEVOIX     SUNNY     84  51  32 W21G28    29.84F
FRANKFORT      SUNNY     80  60  51 SW12G25   29.86F
GAYLORD        SUNNY     87  47  24 SW22G30   29.84F
GRAYLING       SUNNY     86  52  30 SW12      29.85F
HARBOR SPRINGS SUNNY     80  58  47 W10G17    29.81S
HOUGHTON LAKE  MOSUNNY   85  58  39 W14G21    29.87F
MANISTEE       MOSUNNY   81  50  34 SW17G23   29.88F
OSCODA         LGT RAIN  78  75  90 S8        29.82S
PELLSTON       SUNNY     84  50  30 SW17G33   29.81R
ROGERS CITY    MOSUNNY   86  61  42 SW15G23   29.79F
TRAVERSE CITY  MOSUNNY   87  50  27 W16G26    29.82F
$$
MIZ007>008-015-292100-
EASTERN UPPER MICHIGAN

CITY           SKY/WX    TMP DP  RH WIND       PRES   REMARKS
KINROSS        SUNNY     81  54  39 SW14G25   29.76F
MACKINAC ISLAN SUNNY     79  55  43 SW15G29   29.79S
MUNISING         N/A     71  57  61 N10       29.76R
$$
MIZ004>006-011>014-085-292100-
CENTRAL UPPER MICHIGAN

CITY           SKY/WX    TMP DP  RH WIND       PRES   REMARKS
ESCANABA       MOSUNNY   84  52  32 W16G29    29.75S
MENOMINEE      SUNNY     82  54  36 W14G28    29.80S
SAWYER-GWINN   PTSUNNY   81  52  36 W13G22    29.77S
$$
MIZ001>003-009>011-084-292100-
WESTERN UPPER MICHIGAN

CITY           SKY/WX    TMP DP  RH WIND       PRES   REMARKS
IRON MOUNTAIN  MOSUNNY   84  54  35 W16G30    29.79R
HOUGHTON       CLOUDY    72  53  51 W24G38    29.74R
COPPER HARBOR    N/A     74  53  48 NW17G30   29.71
IRONWOOD       CLOUDY    72  55  56 W18G33    29.80R
$$

ABBREVIATIONS USED IN REMARKS
   TC - TEMPERATURE IN CELSIUS
  WCI - WIND CHILL INDEX
   HX - HEAT INDEX
  VSB - VISIBILITY



USA.gov is the U.S. government's official web portal to all federal, state and local government web resources and services.